| time (UTC) | temp F | wind direction | speed MPH | gust MPH | rain 1hr in | rain 24hr in | rain mn in | humidity % | barometer mb |
| 20260506013034 | 48 | 292 | 5.0 | 8.0 | 0.00 | 0.00 | 0.00 | 39 | 1009.8 |
| 20260506011535 | 49 | 326 | 6.0 | 10.0 | 0.00 | 0.00 | 0.00 | 40 | 1009.7 |
| 20260506010045 | 49 | 360 | 4.0 | 9.0 | 0.00 | 0.00 | 0.00 | 40 | 1009.7 |
| 20260506004634 | 49 | 346 | 6.0 | 11.0 | 0.00 | 0.00 | 0.00 | 39 | 1009.5 |
| 20260506003030 | 49 | 327 | 3.0 | 10.0 | 0.00 | 0.00 | 0.00 | 39 | 1009.4 |
| 20260506001529 | 50 | 348 | 5.0 | 11.0 | 0.00 | 0.00 | 0.00 | 38 | 1009.3 |
| 20260506000010 | 50 | 355 | 6.0 | 10.0 | 0.00 | 0.00 | 0.00 | 37 | 1009.2 |
| 20260505234521 | 50 | 295 | 5.0 | 13.0 | 0.00 | 0.00 | 0.00 | 37 | 1009.1 |
| 20260505233007 | 50 | 313 | 7.0 | 13.0 | 0.00 | 0.00 | 0.00 | 36 | 1009.2 |
| 20260505231503 | 51 | 321 | 7.0 | 12.0 | 0.00 | 0.00 | 0.00 | 36 | 1009.0 |
| 20260505230008 | 51 | 306 | 5.0 | 11.0 | 0.00 | 0.00 | 0.00 | 35 | 1009.2 |
| 20260505224503 | 51 | 355 | 8.0 | 13.0 | 0.00 | 0.00 | 0.00 | 36 | 1009.3 |
| 20260505223059 | 51 | 273 | 6.0 | 11.0 | 0.00 | 0.00 | 0.00 | 37 | 1009.2 |
| 20260505221559 | 51 | 266 | 6.0 | 16.0 | 0.00 | 0.00 | 0.00 | 37 | 1009.1 |
| 20260505220057 | 51 | 336 | 9.0 | 16.0 | 0.00 | 0.00 | 0.00 | 35 | 1009.2 |
| 20260505214623 | 52 | 265 | 6.0 | 13.0 | 0.00 | 0.00 | 0.00 | 35 | 1009.1 |
| 20260505213024 | 51 | 296 | 4.0 | 15.0 | 0.00 | 0.00 | 0.00 | 36 | 1009.2 |
| 20260505211522 | 51 | 272 | 6.0 | 14.0 | 0.00 | 0.00 | 0.00 | 34 | 1009.3 |
| 20260505210020 | 51 | 300 | 7.0 | 15.0 | 0.00 | 0.00 | 0.00 | 33 | 1009.3 |
| 20260505204520 | 51 | 305 | 8.0 | 15.0 | 0.00 | 0.00 | 0.00 | 34 | 1009.2 |
| 20260505203031 | 52 | 308 | 7.0 | 15.0 | 0.00 | 0.00 | 0.00 | 32 | 1009.3 |
| 20260505201524 | 51 | 267 | 7.0 | 13.0 | 0.00 | 0.00 | 0.00 | 33 | 1009.3 |
| 20260505200014 | 51 | 24 | 9.0 | 15.0 | 0.00 | 0.00 | 0.00 | 33 | 1009.3 |
| 20260505194515 | 52 | 360 | 8.0 | 13.0 | 0.00 | 0.00 | 0.00 | 32 | 1009.4 |
| 20260505193012 | 51 | 342 | 6.0 | 11.0 | 0.00 | 0.00 | 0.00 | 32 | 1009.4 |
| 20260505191511 | 54 | 336 | 7.0 | 16.0 | 0.00 | 0.00 | 0.00 | 29 | 1009.4 |
| 20260505190038 | 52 | 277 | 5.0 | 12.0 | 0.00 | 0.00 | 0.00 | 29 | 1009.6 |
| 20260505184538 | 51 | 355 | 3.0 | 13.0 | 0.00 | 0.00 | 0.00 | 32 | 1009.8 |
| 20260505183036 | 51 | 328 | 7.0 | 16.0 | 0.00 | 0.00 | 0.00 | 30 | 1009.7 |
| 20260505181533 | 51 | 331 | 5.0 | 14.0 | 0.00 | 0.00 | 0.00 | 31 | 1009.6 |
| 20260505180055 | 51 | 9 | 10.0 | 19.0 | 0.00 | 0.00 | 0.00 | 30 | 1009.4 |
| 20260505174547 | 51 | 319 | 2.0 | 13.0 | 0.00 | 0.00 | 0.00 | 31 | 1009.6 |
| 20260505173030 | 49 | 336 | 9.0 | 17.0 | 0.00 | 0.00 | 0.00 | 31 | 1009.6 |
| 20260505171524 | 49 | 318 | 5.0 | 20.0 | 0.00 | 0.00 | 0.00 | 31 | 1009.6 |
| 20260505170017 | 50 | 323 | 8.0 | 17.0 | 0.00 | 0.00 | 0.00 | 31 | 1009.6 |
| 20260505164516 | 50 | 355 | 7.0 | 10.0 | 0.00 | 0.00 | 0.00 | 31 | 1009.6 |
| 20260505163019 | 48 | 351 | 6.0 | 17.0 | 0.00 | 0.00 | 0.00 | 30 | 1009.7 |
| 20260505161506 | 50 | 290 | 5.0 | 14.0 | 0.00 | 0.00 | 0.00 | 33 | 1009.7 |
| 20260505153059 | 48 | 338 | 8.0 | 14.0 | 0.00 | 0.00 | 0.00 | 32 | 1009.6 |
| 20260505151602 | 48 | 355 | 11.0 | 17.0 | 0.00 | 0.00 | 0.00 | 35 | 1009.3 |
| 20260505124545 | 43 | 307 | 5.0 | 8.0 | 0.00 | 0.00 | 0.00 | 49 | 1008.4 |
| 20260505123040 | 42 | 309 | 3.0 | 7.0 | 0.00 | 0.00 | 0.00 | 52 | 1008.4 |
| 20260505121537 | 42 | 310 | 3.0 | 7.0 | 0.00 | 0.00 | 0.00 | 53 | 1008.1 |
| 20260505120038 | 42 | 295 | 1.0 | 4.0 | 0.00 | 0.00 | 0.00 | 55 | 1007.9 |
| 20260505114532 | 40 | 317 | 4.0 | 7.0 | 0.00 | 0.00 | 0.00 | 56 | 1007.6 |
| 20260505113029 | 40 | 301 | 2.0 | 5.0 | 0.00 | 0.00 | 0.00 | 57 | 1007.1 |
| 20260505111525 | 39 | 281 | 2.0 | 5.0 | 0.00 | 0.00 | 0.00 | 59 | 1006.9 |
| 20260505101548 | 40 | 317 | 2.0 | 6.0 | 0.00 | 0.00 | 0.00 | 59 | 1006.3 |
| 20260505100051 | 40 | 316 | 2.0 | 9.0 | 0.00 | 0.00 | 0.00 | 59 | 1006.2 |
| 20260505094514 | 41 | 281 | 1.0 | 3.0 | 0.00 | 0.00 | 0.00 | 57 | 1006.1 |
| 20260505093022 | 41 | 313 | 2.0 | 5.0 | 0.00 | 0.00 | 0.00 | 57 | 1006.0 |
| 20260505091546 | 42 | 268 | 2.0 | 5.0 | 0.00 | 0.00 | 0.00 | 56 | 1005.8 |
| 20260505090040 | 42 | 327 | 1.0 | 5.0 | 0.00 | 0.00 | 0.00 | 56 | 1005.5 |
| 20260505084635 | 41 | 274 | 2.0 | 4.0 | 0.00 | 0.00 | 0.00 | 56 | 1005.3 |
| 20260505083033 | 42 | 313 | 1.0 | 4.0 | 0.00 | 0.00 | 0.00 | 56 | 1005.1 |
| 20260505081535 | 42 | 294 | 0.0 | 3.0 | 0.00 | 0.00 | 0.00 | 56 | 1004.8 |
| 20260505080028 | 42 | 294 | 1.0 | 5.0 | 0.00 | 0.00 | 0.00 | 58 | 1004.8 |
| 20260505074525 | 42 | 279 | 1.0 | 4.0 | 0.00 | 0.00 | 0.00 | 57 | 1004.7 |
| 20260505073023 | 42 | 248 | 1.0 | 3.0 | 0.00 | 0.00 | 0.00 | 56 | 1004.7 |
| 20260505071521 | 42 | 303 | 2.0 | 4.0 | 0.00 | 0.00 | 0.00 | 55 | 1004.7 |
| 20260505070019 | 43 | 279 | 4.0 | 7.0 | 0.00 | 0.00 | 0.00 | 53 | 1004.7 |
| 20260505064515 | 44 | 282 | 4.0 | 7.0 | 0.00 | 0.00 | 0.00 | 52 | 1004.7 |
| 20260505063017 | 43 | 258 | 3.0 | 7.0 | 0.00 | 0.00 | 0.00 | 52 | 1004.8 |
| 20260505061512 | 44 | 273 | 3.0 | 7.0 | 0.00 | 0.00 | 0.00 | 51 | 1004.8 |
| 20260505060010 | 44 | 305 | 3.0 | 6.0 | 0.00 | 0.00 | 0.00 | 50 | 1004.7 |
| 20260505054537 | 45 | 263 | 3.0 | 7.0 | 0.00 | 0.00 | 0.00 | 50 | 1004.8 |
| 20260505053042 | 45 | 263 | 2.0 | 6.0 | 0.00 | 0.00 | 0.00 | 49 | 1004.8 |
| 20260505051554 | 45 | 273 | 3.0 | 5.0 | 0.00 | 0.00 | 0.00 | 48 | 1004.6 |
| 20260505041527 | 47 | 284 | 2.0 | 6.0 | 0.00 | 0.00 | 0.00 | 45 | 1004.5 |
| 20260505040025 | 47 | 314 | 2.0 | 4.0 | 0.00 | 0.00 | 0.00 | 45 | 1004.4 |
| 20260505034520 | 47 | 318 | 3.0 | 8.0 | 0.00 | 0.00 | 0.00 | 43 | 1004.4 |
| 20260505033018 | 48 | 327 | 5.0 | 12.0 | 0.00 | 0.00 | 0.00 | 42 | 1004.4 |
| 20260505031516 | 48 | 5 | 5.0 | 11.0 | 0.00 | 0.00 | 0.00 | 43 | 1004.4 |
| 20260505030011 | 49 | 21 | 9.0 | 17.0 | 0.00 | 0.00 | 0.00 | 42 | 1004.2 |
| 20260505024510 | 49 | 355 | 10.0 | 17.0 | 0.00 | 0.00 | 0.00 | 43 | 1003.9 |
| 20260505023003 | 50 | 52 | 10.0 | 18.0 | 0.00 | 0.00 | 0.00 | 41 | 1003.4 |
| 20260505021558 | 51 | 5 | 9.0 | 16.0 | 0.00 | 0.00 | 0.00 | 41 | 1003.0 |
| 20260505020103 | 51 | 325 | 3.0 | 14.0 | 0.00 | 0.00 | 0.00 | 40 | 1002.6 |
| 20260505014554 | 52 | 338 | 4.0 | 9.0 | 0.00 | 0.00 | 0.00 | 40 | 1002.3 |